TimeCST,TemperatureF,Dew PointF,Humidity,Sea Level PressureIn,VisibilityMPH,Wind Direction,Wind SpeedMPH,Gust SpeedMPH,PrecipitationIn,Events,Conditions,WindDirDegrees,DateUTC
12:15 AM,49.3,33.8,55,30.15,10.0,SSE,11.5,-,N/A,,Overcast,160,2012-11-18 06:15:00
12:36 AM,49.1,34.0,56,30.15,10.0,SSE,12.7,18.4,N/A,,Overcast,160,2012-11-18 06:36:00
12:55 AM,49.1,34.2,56,30.15,10.0,SSE,10.4,16.1,N/A,,Overcast,160,2012-11-18 06:55:00
1:16 AM,48.7,34.3,58,30.14,10.0,SSE,10.4,16.1,N/A,,Overcast,150,2012-11-18 07:16:00
1:35 AM,48.4,34.2,58,30.14,10.0,SSE,11.5,17.3,N/A,,Overcast,150,2012-11-18 07:35:00
1:56 AM,48.0,33.8,58,30.13,10.0,SSE,10.4,17.3,N/A,,Overcast,160,2012-11-18 07:56:00
2:15 AM,47.7,33.4,58,30.13,10.0,SSE,11.5,18.4,N/A,,Scattered Clouds,160,2012-11-18 08:15:00
2:36 AM,47.8,33.3,57,30.13,10.0,SSE,11.5,17.3,N/A,,Mostly Cloudy,160,2012-11-18 08:36:00
2:55 AM,48.0,33.1,56,30.13,10.0,SSE,9.2,-,N/A,,Overcast,160,2012-11-18 08:55:00
3:16 AM,48.2,32.9,55,30.12,10.0,SSE,8.1,-,N/A,,Overcast,160,2012-11-18 09:16:00
3:36 AM,47.5,32.7,57,30.11,10.0,SSE,9.2,-,N/A,,Overcast,150,2012-11-18 09:36:00
3:56 AM,46.6,32.4,58,30.11,10.0,SSE,9.2,-,N/A,,Mostly Cloudy,150,2012-11-18 09:56:00
4:15 AM,45.7,32.5,60,30.11,10.0,SSE,9.2,-,N/A,,Scattered Clouds,150,2012-11-18 10:15:00
4:36 AM,44.8,32.4,62,30.11,10.0,SSE,9.2,-,N/A,,Clear,150,2012-11-18 10:36:00
4:55 AM,44.4,32.2,62,30.10,10.0,SE,8.1,-,N/A,,Clear,140,2012-11-18 10:55:00
5:16 AM,43.7,32.2,64,30.10,10.0,SE,8.1,-,N/A,,Scattered Clouds,140,2012-11-18 11:16:00
5:36 AM,43.2,32.2,65,30.11,10.0,SE,8.1,-,N/A,,Mostly Cloudy,140,2012-11-18 11:36:00
5:56 AM,42.8,32.0,66,30.10,10.0,SE,5.8,-,N/A,,Scattered Clouds,130,2012-11-18 11:56:00
6:15 AM,42.1,32.0,67,30.10,10.0,SE,4.6,-,N/A,,Clear,130,2012-11-18 12:15:00
6:36 AM,41.9,31.8,67,30.09,10.0,SE,6.9,-,N/A,,Clear,140,2012-11-18 12:36:00
6:56 AM,42.1,32.0,67,30.09,10.0,SE,9.2,-,N/A,,Clear,140,2012-11-18 12:56:00
7:15 AM,42.3,31.8,67,30.09,10.0,SE,8.1,-,N/A,,Clear,140,2012-11-18 13:15:00
7:36 AM,42.6,31.8,66,30.08,10.0,SE,9.2,-,N/A,,Clear,140,2012-11-18 13:36:00
7:56 AM,43.0,31.8,65,30.08,10.0,SSE,8.1,-,N/A,,Clear,150,2012-11-18 13:56:00
8:15 AM,44.2,32.0,62,30.09,10.0,SSE,10.4,16.1,N/A,,Clear,150,2012-11-18 14:15:00
8:36 AM,45.1,32.0,60,30.09,10.0,SSE,8.1,17.3,N/A,,Clear,160,2012-11-18 14:36:00
8:56 AM,45.9,32.0,58,30.09,10.0,SSE,10.4,-,N/A,,Clear,160,2012-11-18 14:56:00
9:16 AM,46.8,32.0,57,30.09,10.0,SSE,11.5,18.4,N/A,,Clear,160,2012-11-18 15:16:00
9:36 AM,47.8,32.0,54,30.09,10.0,SSE,11.5,16.1,N/A,,Clear,160,2012-11-18 15:36:00
9:56 AM,49.1,32.0,52,30.09,10.0,SSE,10.4,17.3,N/A,,Clear,160,2012-11-18 15:56:00
10:15 AM,49.8,32.2,51,30.09,10.0,SSE,8.1,17.3,N/A,,Clear,160,2012-11-18 16:15:00
10:36 AM,51.3,32.2,48,30.09,10.0,South,13.8,20.7,N/A,,Clear,170,2012-11-18 16:36:00
10:56 AM,52.2,32.5,47,30.09,10.0,South,11.5,20.7,N/A,,Clear,170,2012-11-18 16:56:00
11:15 AM,53.2,32.9,46,30.09,10.0,South,9.2,19.6,N/A,,Clear,170,2012-11-18 17:15:00
11:36 AM,54.7,33.3,44,30.07,10.0,South,11.5,17.3,N/A,,Clear,170,2012-11-18 17:36:00
11:55 AM,54.7,33.1,44,30.07,10.0,South,11.5,19.6,N/A,,Clear,170,2012-11-18 17:55:00
12:16 PM,55.4,33.4,43,30.06,10.0,South,13.8,18.4,N/A,,Clear,170,2012-11-18 18:16:00
12:35 PM,56.1,34.0,43,30.06,10.0,South,15.0,20.7,N/A,,Clear,170,2012-11-18 18:35:00
12:56 PM,56.3,33.6,42,30.05,10.0,SSE,12.7,18.4,N/A,,Clear,150,2012-11-18 18:56:00
1:15 PM,57.2,34.0,42,30.04,10.0,South,13.8,19.6,N/A,,Clear,170,2012-11-18 19:15:00
1:36 PM,57.9,34.2,41,30.04,10.0,South,11.5,21.9,N/A,,Clear,170,2012-11-18 19:36:00
1:55 PM,58.3,34.3,41,30.03,10.0,South,12.7,19.6,N/A,,Clear,170,2012-11-18 19:55:00
2:16 PM,58.3,34.2,40,30.03,10.0,SSE,12.7,21.9,N/A,,Clear,160,2012-11-18 20:16:00
2:35 PM,58.3,34.0,40,30.03,10.0,South,9.2,17.3,N/A,,Clear,170,2012-11-18 20:35:00
2:56 PM,57.9,34.0,41,30.03,10.0,SSE,8.1,-,N/A,,Clear,160,2012-11-18 20:56:00
3:15 PM,56.7,34.3,43,30.03,10.0,SSE,6.9,-,N/A,,Clear,150,2012-11-18 21:15:00
3:36 PM,56.5,35.2,45,30.03,10.0,South,5.8,-,N/A,,Clear,170,2012-11-18 21:36:00
3:55 PM,55.6,34.9,46,30.04,10.0,SSE,5.8,-,N/A,,Clear,160,2012-11-18 21:55:00
4:15 PM,54.9,34.7,47,30.04,10.0,South,6.9,-,N/A,,Clear,170,2012-11-18 22:15:00
4:36 PM,54.0,34.7,48,30.04,10.0,SE,4.6,-,N/A,,Clear,140,2012-11-18 22:36:00
4:55 PM,52.7,34.7,50,30.04,10.0,SE,4.6,-,N/A,,Clear,130,2012-11-18 22:55:00
5:15 PM,50.0,34.7,56,30.04,10.0,ESE,5.8,-,N/A,,Clear,120,2012-11-18 23:15:00
5:36 PM,48.6,34.9,59,30.04,10.0,ESE,5.8,-,N/A,,Clear,120,2012-11-18 23:36:00
5:55 PM,50.5,34.9,55,30.05,10.0,SE,4.6,-,N/A,,Clear,130,2012-11-18 23:55:00
6:16 PM,52.3,34.7,51,30.05,10.0,SSE,8.1,-,N/A,,Clear,150,2012-11-19 00:16:00
6:35 PM,52.9,34.2,49,30.05,10.0,SSE,9.2,-,N/A,,Clear,150,2012-11-19 00:35:00
6:56 PM,52.9,34.2,49,30.05,10.0,SSE,9.2,17.3,N/A,,Clear,150,2012-11-19 00:56:00
7:15 PM,52.5,34.2,50,30.05,10.0,SSE,11.5,16.1,N/A,,Clear,150,2012-11-19 01:15:00
7:35 PM,52.2,34.0,50,30.05,10.0,SSE,10.4,19.6,N/A,,Clear,150,2012-11-19 01:35:00
7:56 PM,51.4,34.0,51,30.06,10.0,SSE,11.5,16.1,N/A,,Clear,160,2012-11-19 01:56:00
8:15 PM,50.9,34.0,52,30.05,10.0,SSE,9.2,-,N/A,,Clear,160,2012-11-19 02:15:00
8:35 PM,50.9,33.8,52,30.06,10.0,South,9.2,-,N/A,,Clear,170,2012-11-19 02:35:00
8:56 PM,50.5,33.8,53,30.06,10.0,South,8.1,-,N/A,,Clear,170,2012-11-19 02:56:00
9:15 PM,50.4,33.8,53,30.06,10.0,South,9.2,17.3,N/A,,Clear,170,2012-11-19 03:15:00
9:36 PM,50.0,33.8,54,30.06,10.0,South,9.2,-,N/A,,Clear,170,2012-11-19 03:36:00
9:55 PM,49.5,33.8,55,30.07,10.0,South,11.5,-,N/A,,Clear,170,2012-11-19 03:55:00
10:15 PM,49.1,33.8,56,30.07,10.0,South,10.4,-,N/A,,Clear,170,2012-11-19 04:15:00
10:36 PM,48.9,33.8,56,30.07,10.0,SSE,8.1,-,N/A,,Clear,160,2012-11-19 04:36:00
11:16 PM,47.8,33.6,58,30.05,10.0,SSE,10.4,17.3,N/A,,Clear,160,2012-11-19 05:16:00
11:35 PM,48.2,33.8,58,30.05,10.0,SSE,10.4,-,N/A,,Scattered Clouds,160,2012-11-19 05:35:00
11:56 PM,48.4,34.0,58,30.05,10.0,SSE,8.1,-,N/A,,Scattered Clouds,160,2012-11-19 05:56:00